Theta_e
346 349 356 353 353 354 354 355 354 354 354 354 355 357 357 359 359 358 357 357 359 358 356 356 355 355 354 355 357 358 359 358 358 357 357 355 355 355 358 357 357 353 356
349 348 356 356 353 352 352 351 351 351 351 351 352 354 355 356 356 357 357 357 357 354 355 356 356 355 354 353 352 354 355 357 355 356 355 357 357 357 357 360 357 356 358
346 348 352 357 355 354 353 353 352 353 351 350 349 349 353 354 354 355 357 357 355 352 353 354 354 353 352 352 351 351 352 353 353 354 354 351 353 356 355 358 359 359 359
346 346 351 358 357 355 354 355 355 354 354 354 354 349 350 353 353 354 355 354 353 352 352 352 352 350 349 349 349 351 354 352 352 351 349 353 351 356 356 357 358 359 359
343 347 351 358 357 354 355 354 352 351 350 350 351 354 350 351 354 355 356 355 352 351 351 351 350 350 350 350 351 353 355 353 353 350 345 346 345 352 355 355 355 358 358
341 344 357 359 357 355 353 353 351 350 350 350 349 349 351 350 351 354 355 355 351 350 350 350 349 349 349 349 352 352 353 353 353 344 345 347 348 359 355 355 355 356 356
340 346 353 358 357 355 353 352 351 350 349 349 350 349 348 350 350 352 355 352 350 349 350 349 348 348 350 351 352 353 354 354 342 344 345 346 349 356 356 354 355 356 356
343 346 351 357 358 356 353 352 350 350 349 348 349 350 349 349 350 350 352 351 350 349 347 347 347 349 349 350 352 353 354 352 345 346 345 346 351 356 355 354 354 354 354
344 345 347 349 352 354 354 352 350 350 351 350 351 350 349 349 349 350 352 351 349 349 347 347 348 350 350 350 351 351 353 353 338 343 346 347 355 355 353 353 353 353 353
342 343 342 346 347 347 347 352 350 350 351 351 349 349 349 349 349 349 351 351 349 349 349 348 349 350 350 351 351 351 353 349 336 335 341 345 353 354 352 352 352 352 352
338 342 341 343 343 344 345 348 351 350 350 350 349 349 348 340 342 345 347 349 349 350 350 350 350 350 350 351 352 353 354 340 336 336 339 350 355 354 353 352 352 352 351
333 337 342 344 343 343 348 344 342 343 342 343 343 342 339 337 334 341 344 351 351 351 351 351 351 351 350 339 336 342 339 337 334 333 337 354 355 352 352 352 353 352 352
331 335 340 342 343 342 343 343 341 340 340 339 338 337 337 337 335 338 338 342 340 346 339 342 341 340 338 334 332 331 331 332 333 333 340 354 355 353 352 352 352 352 352
329 332 337 340 341 339 341 341 339 339 338 336 336 336 334 333 335 334 335 333 333 332 334 332 330 330 330 331 329 329 329 329 331 333 337 354 353 354 352 352 352 352 352
327 330 334 335 333 337 338 335 334 336 337 337 335 338 336 336 335 331 332 328 329 330 329 327 328 329 328 329 329 330 331 327 331 333 337 354 353 354 355 352 352 351 352
327 329 332 330 335 338 337 332 332 333 336 336 336 338 339 337 335 333 335 333 331 333 333 330 329 330 330 331 332 332 333 329 331 331 337 345 353 353 354 354 353 352 352
326 330 330 332 334 335 334 335 333 333 335 334 337 339 339 338 339 341 338 337 336 336 336 334 334 333 333 334 331 333 334 334 330 332 333 339 344 352 353 354 354 353 352
325 329 331 336 333 332 332 336 335 334 332 332 331 333 341 339 338 337 337 337 338 338 339 340 337 334 333 333 332 335 337 339 337 333 335 334 335 341 349 353 353 353 352
325 328 328 331 331 333 332 334 335 334 334 336 333 333 335 341 340 336 338 338 338 338 341 338 338 335 333 334 337 335 336 336 337 340 336 335 335 337 339 347 350 351 352
324 327 327 330 331 332 334 333 334 334 334 334 333 333 334 338 343 340 337 337 339 338 338 338 338 338 336 338 343 339 336 336 336 335 335 337 338 340 338 338 337 342 350
324 324 323 327 330 332 333 332 331 330 332 332 333 334 334 334 339 339 341 338 338 336 336 336 336 336 335 337 334 332 332 335 334 334 334 334 335 338 339 341 338 338 341
325 325 324 325 332 334 334 333 333 332 332 333 333 335 335 335 335 338 337 339 339 339 339 339 336 334 334 336 330 326 323 327 329 332 331 333 334 338 339 340 339 340 339
327 327 327 327 330 336 335 334 334 336 337 336 335 337 339 340 337 336 339 340 340 340 338 340 338 338 334 335 333 328 322 318 322 327 327 330 328 325 328 331 336 339 338
330 330 329 331 333 335 337 336 335 333 332 336 341 341 342 344 344 340 339 340 342 343 340 339 337 332 331 327 329 330 327 324 320 319 325 319 318 319 320 322 323 327 331
337 339 343 343 345 348 341 340 341 339 342 346 344 342 341 343 343 344 344 342 341 340 339 336 333 330 331 331 327 325 327 329 329 325 319 320 317 318 319 320 321 321 323
341 341 341 341 341 342 342 344 342 342 341 341 340 338 339 339 337 336 336 335 335 334 331 328 328 325 321 320 317 317 321 323 321 323 318 312 314 313 312 316 318 319 321
Wind_Speed
6 8 16 17 16 15 15 14 13 13 13 12 11 10 11 11 11 11 12 11 10 9 11 11 10 10 10 10 9 8 8 7 5 4 4 1 2 2 5 8 11 9 10
15 10 16 16 17 16 16 15 14 14 13 11 11 9 9 10 12 10 11 11 9 9 10 9 9 8 8 9 8 8 7 6 5 4 4 6 6 4 7 12 10 8 10
14 12 14 17 17 17 16 15 14 13 13 12 11 9 8 9 9 9 9 10 9 8 8 7 6 5 4 6 6 6 5 4 3 5 5 3 4 5 7 11 11 10 11
15 9 11 17 17 17 16 14 13 13 12 10 10 10 9 8 8 8 9 10 8 7 6 6 5 3 2 3 4 5 3 3 1 2 2 1 4 5 6 9 11 11 11
11 11 12 17 16 17 16 14 13 12 12 11 10 10 9 7 7 7 8 10 8 7 6 5 3 2 2 3 4 4 2 3 4 4 5 2 3 4 6 8 8 9 10
10 8 15 16 16 15 15 14 12 12 11 11 10 9 9 8 6 5 9 8 8 6 6 4 2 2 3 2 2 2 3 5 6 4 6 5 3 7 8 8 9 7 8
9 7 10 15 15 14 14 13 11 11 10 10 10 9 9 8 7 6 9 9 8 6 5 4 2 1 2 3 3 4 6 7 4 5 5 4 3 8 10 8 8 9 8
13 7 7 15 15 13 14 13 12 11 10 10 9 9 9 9 8 7 7 7 7 6 4 3 4 4 4 6 6 6 7 6 7 4 6 4 7 10 12 11 9 8 7
12 9 6 7 11 14 13 12 11 10 10 9 8 8 8 8 8 8 7 7 6 5 4 5 6 5 6 6 7 7 5 2 3 4 5 3 11 10 10 10 10 10 8
11 9 7 6 6 6 7 13 11 11 11 9 9 8 8 8 8 8 8 8 8 7 6 7 7 5 6 7 8 8 5 1 3 6 4 4 9 11 10 10 10 9 8
8 10 8 7 7 7 6 9 12 13 12 11 9 10 6 3 4 6 7 8 9 9 8 8 9 8 8 9 10 10 9 2 3 2 2 11 12 13 13 12 11 10 9
12 11 12 12 11 9 8 6 6 6 5 5 5 6 4 5 4 5 7 10 10 9 9 9 10 11 9 4 4 9 2 4 4 4 3 12 14 14 14 14 13 12 11
16 11 13 12 12 12 8 5 3 3 3 4 7 6 6 4 4 4 3 3 3 7 3 5 5 4 5 5 4 5 4 5 4 4 8 16 14 16 15 15 13 13 12
15 16 14 13 12 13 5 6 6 5 4 4 5 7 5 3 4 4 4 4 4 4 5 5 3 4 6 6 7 8 6 4 4 4 9 16 15 16 17 16 15 14 14
15 14 15 12 11 12 10 6 5 6 6 6 5 6 5 5 6 4 5 4 5 4 5 5 5 5 6 7 8 9 8 6 5 3 3 18 18 18 17 17 17 16 16
16 16 15 12 13 13 10 8 7 5 6 5 5 6 7 5 5 6 5 6 5 5 5 5 6 6 8 6 8 6 6 5 6 6 5 9 20 19 18 17 18 17 17
17 18 15 14 10 11 10 7 6 6 6 5 7 8 7 7 6 6 5 5 6 5 6 6 7 5 4 5 5 3 4 4 6 7 4 2 5 13 14 14 16 16 16
12 17 12 13 12 10 7 7 5 5 4 5 4 4 8 8 8 6 5 5 5 3 2 2 3 5 6 3 2 2 2 5 3 3 4 4 4 3 9 14 15 15 15
13 13 9 8 10 9 7 4 4 4 3 2 1 3 6 6 6 6 5 5 5 4 3 2 2 2 3 3 3 2 3 3 1 2 3 1 5 5 4 8 13 13 15
10 10 10 7 8 7 4 3 2 1 2 2 3 4 5 5 7 6 5 6 5 4 4 3 4 2 4 3 2 3 4 4 4 4 3 2 3 2 5 5 4 6 15
6 8 8 9 6 4 2 3 1 2 2 3 4 7 7 6 6 7 6 5 4 5 6 5 2 2 2 1 1 3 2 4 6 3 4 2 5 3 1 4 4 5 5
10 9 8 8 8 6 4 3 3 3 4 4 2 6 7 7 7 6 7 7 6 5 6 5 1 1 1 2 2 1 3 4 3 3 3 4 3 2 4 4 4 4 3
12 12 12 11 11 8 7 3 2 2 2 2 3 4 5 6 9 7 7 6 6 3 4 2 2 4 2 1 3 3 1 4 2 2 2 5 6 5 5 5 5 4 5
8 6 5 1 2 3 6 4 5 4 4 2 2 3 4 9 8 3 4 4 3 3 4 3 2 0 2 2 1 1 1 1 2 2 3 5 5 7 7 4 4 6 6
7 7 7 8 6 5 6 4 4 4 1 0 3 6 7 8 11 11 11 9 8 6 6 6 4 5 2 2 1 1 1 1 1 2 1 1 4 5 5 5 5 5 6
12 12 11 13 10 10 9 5 3 5 5 5 6 5 5 6 7 10 10 8 8 7 6 5 5 8 5 5 4 4 2 1 1 0 2 2 2 2 3 4 5 5 6
Wind_Direction
150 143 133 128 127 124 124 120 115 108 101 97 92 82 90 97 108 110 105 94 96 105 105 105 103 100 99 96 94 94 92 96 107 123 144 28 38 74 134 138 133 135 145
134 138 136 132 128 127 122 117 114 110 106 106 104 103 91 91 96 104 113 107 101 104 102 100 106 107 105 100 96 98 88 88 106 99 85 72 51 70 120 118 130 133 139
133 139 137 133 132 129 121 118 116 113 111 112 111 110 109 104 110 112 110 112 111 110 107 104 99 99 102 95 95 97 96 97 117 132 117 107 75 59 102 115 116 120 122
135 138 133 135 132 125 120 121 119 113 111 110 116 114 120 118 130 127 121 107 115 115 111 107 99 76 12 53 72 80 117 138 210 220 171 157 109 101 96 105 116 120 125
128 131 141 137 133 128 124 125 121 121 119 119 113 120 119 123 99 122 130 130 128 122 121 112 89 28 2 70 82 90 70 24 333 312 196 118 102 113 122 111 119 136 136
131 134 141 139 133 132 129 129 127 126 123 123 122 125 127 126 113 81 131 120 121 121 125 122 106 33 347 18 43 92 74 11 346 98 120 158 124 152 148 136 140 148 143
132 130 136 135 132 135 135 135 136 133 132 131 130 133 130 131 136 110 120 130 135 136 144 155 190 239 282 312 328 336 37 19 48 85 103 133 187 146 139 136 131 139 153
135 133 146 143 140 144 145 148 147 141 141 140 142 142 142 147 150 148 140 146 150 148 159 200 245 264 297 324 334 334 46 44 86 121 148 170 199 170 161 154 144 143 158
140 136 135 140 147 152 152 154 155 151 153 154 156 158 159 158 161 164 162 164 168 174 192 219 243 274 304 313 315 316 47 90 108 161 181 188 190 187 174 162 154 153 158
145 145 146 151 146 153 164 164 166 165 164 165 166 170 175 176 179 181 182 185 186 195 214 245 261 269 276 289 292 295 297 349 241 206 182 192 192 189 180 173 165 160 169
159 160 159 159 162 168 175 180 177 177 174 181 184 187 190 177 200 213 203 209 206 209 215 236 263 271 267 267 272 280 287 181 241 250 199 187 195 198 184 180 171 173 180
168 181 174 172 175 175 182 184 182 187 181 185 190 199 188 194 201 208 223 224 224 224 224 232 248 263 279 272 282 288 255 197 221 196 202 204 196 203 193 180 179 177 183
180 175 184 183 177 180 185 176 183 190 193 199 195 195 195 195 211 220 222 218 216 248 249 251 263 261 267 280 270 267 255 195 212 187 195 205 197 202 198 188 185 188 187
180 180 188 183 183 184 167 179 187 188 196 207 210 191 184 206 205 210 215 217 210 218 236 235 246 266 270 276 279 285 280 239 209 191 199 194 199 207 201 194 189 190 196
179 182 193 178 181 187 171 179 175 204 192 207 213 206 183 198 204 187 208 205 221 211 227 234 231 240 250 240 246 254 267 252 178 190 184 191 203 209 206 199 195 198 199
181 184 189 179 181 182 178 171 189 187 205 193 213 218 205 192 194 186 203 213 227 213 224 227 224 225 242 253 253 244 272 211 198 201 194 203 206 205 209 202 201 201 206
183 181 186 174 169 178 178 171 185 200 200 189 211 218 208 199 200 190 186 196 217 215 227 238 238 230 237 233 247 276 272 286 222 196 223 240 225 217 218 215 205 207 213
160 177 174 171 173 170 178 162 166 168 170 188 208 214 213 206 201 206 207 216 233 259 241 220 222 231 230 247 253 260 64 72 54 170 152 169 189 228 243 229 218 207 214
169 169 174 170 170 173 167 166 177 181 171 191 211 213 229 224 224 202 208 222 223 235 247 241 276 221 289 291 325 295 316 349 26 114 148 143 194 190 213 249 241 227 214
169 167 168 169 169 166 132 110 72 62 271 255 247 237 232 228 220 212 234 227 217 231 254 238 226 203 220 239 268 192 263 257 249 252 213 217 218 167 185 216 245 249 234
146 149 160 154 177 138 115 110 64 229 259 280 260 261 256 236 228 211 224 230 220 215 232 244 241 255 298 127 329 316 286 250 256 232 160 177 90 82 134 210 208 224 225
168 177 167 173 169 181 163 164 161 171 224 232 252 270 254 251 228 218 217 219 216 224 242 261 217 266 229 179 206 137 299 321 337 348 97 117 136 209 235 236 234 254 269
173 181 186 187 183 185 178 114 68 35 357 324 280 280 321 284 258 219 215 202 223 217 227 229 221 186 225 249 180 186 250 237 328 4 53 47 45 43 22 6 359 273 236
196 189 193 169 129 132 149 152 161 181 211 283 23 72 26 24 15 297 205 172 149 111 82 74 63 340 132 232 329 245 11 132 196 327 33 43 43 36 25 10 4 10 356
99 105 93 84 94 112 168 182 175 188 214 186 69 58 35 37 28 44 57 43 61 58 55 53 77 70 33 99 77 79 74 93 271 206 227 111 67 21 14 7 2 17 6
68 73 81 83 69 67 74 77 102 98 83 82 70 64 46 46 38 36 49 52 56 54 53 63 62 58 51 61 43 32 36 71 89 254 116 58 36 32 7 15 16 12 13